Weather Roundup
Issued by NWS

Home | Current Version | Previous Version | Graphics & Text | Print | Product List | Glossary Off
Versions: 1 2 3 4 5 6 7 8 9 10 11 12 13 14 15 16 17 18 19 20 21 22 23 24 25 26 27 28 29 30 31 32 33 34 35 36 37 38 39 40 41 42 43 44 45 46 47 48 49 50

000
NZUS93 KARX 240810
HRRWXR

CURRENT HOURLY OBSERVATIONS ACROSS
MUCH OF THE UPPER MISSISSIPPI VALLEY
NATIONAL WEATHER SERVICE LA CROSSE WI
200 AM CST SAT JAN 24 2015


...SOUTHEAST MINNESOTA...


CITY           SKY/WX    TMP DP  RH WIND       PRES   REMARKS
ROCHESTER      FOG       24  22  91 W8        29.76F VSB 1/4 WCI  15
ROCHESTER/MAYO FAIR      31  30  96 W9        29.77S WCI  23
WINONA         CLEAR     23  21  93 CALM      29.77F FOG
AUSTIN         CLEAR     30  28  93 W8        29.78F WCI  23
ALBERT LEA     CLEAR     30  30 100 W6        29.79F WCI  24
DODGE CENTER   FOG       30  30 100 W13       29.76F VSB 1   WCI  20
PRESTON        PTCLDY    27  26  96 W10       29.77S WCI  17
OWATONNA       CLEAR     25  25 100 SW6       29.78F FOG     WCI  18
FARIBAULT      CLEAR     30  28  93 W9        29.79S WCI  22
$$

...ELSEWHERE IN MINNESOTA...


CITY           SKY/WX    TMP DP  RH WIND       PRES   REMARKS
MINNEAPOLIS    PTCLDY    29  27  92 SW6       29.77F WCI  23
INTNL FALLS    CLOUDY    34  30  85 W6        29.67F WCI  29
DULUTH         CLOUDY    36  31  82 NW10      29.65F WCI  28
RED WING       CLEAR     25  25 100 W3        29.76F FOG
REDWOOD FALLS  CLEAR     34  30  85 W13       29.82F WCI  25
MANKATO        CLEAR     34  28  80 W10       29.81S WCI  26
WORTHINGTON    CLEAR     30  27  86 W12       29.86S WCI  21
FAIRMONT       CLEAR     34  27  75 W10       29.82F WCI  26
$$

...SOUTHWEST WISCONSIN...


CITY           SKY/WX    TMP DP  RH WIND       PRES   REMARKS
LA CROSSE      PTCLDY    24  22  91 CALM      29.77F
PRAIRIE DU CHI CLEAR     27  25  94 CALM      29.79S FOG
BOSCOBEL       PTCLDY    29  25  85 S6        29.78S WCI  23
LONE ROCK      PTCLDY    30  26  85 W5        29.76F WCI  25
PLATTEVILLE    CLOUDY    30  28  92 W7        29.76F WCI  23
FORT MC COY    CLOUDY    31  28  86 CALM      29.76S
CAMP DOUGLAS   CLOUDY    32  32 100 W8        29.73F WCI  25
VIROQUA        CLOUDY    28  28 100 W3        29.75S
WIS DELLS      CLEAR     28  25  87 CALM      29.73S
$$

...ELSEWHERE IN WISCONSIN...


CITY           SKY/WX    TMP DP  RH WIND       PRES   REMARKS
MILWAUKEE      CLOUDY    32  25  75 W8        29.72F WCI  25
MADISON        CLOUDY    32  27  81 CALM      29.74S
GREEN BAY      CLOUDY    32  26  78 W9        29.68F WCI  24
EAU CLAIRE     PTCLDY    30  26  85 SW6       29.72F WCI  24
BLACK RVR FLS  CLOUDY    29  27  92 CALM      29.74F
MEDFORD        CLOUDY    32  28  87 W6        29.66F WCI  26
WAUSAU         CLOUDY    32  27  81 W6        29.66F WCI  26
WIS RAPIDS     CLOUDY    31  25  78 W7        29.72F WCI  24
MARSHFIELD     CLOUDY    33  27  78 W7        29.69F WCI  27
RICE LAKE      CLEAR     32  29  88 SW5       29.71F WCI  27
$$

...NORTHEAST IOWA...


CITY           SKY/WX    TMP DP  RH WIND       PRES   REMARKS
DECORAH        CLEAR     28  28 100 W5        29.77S WCI  23
MASON CITY     CLEAR     28  26  92 W10       29.83F WCI  19
CHARLES CITY   CLEAR     28  28 100 W9        29.81S WCI  20
OELWEIN        CLEAR     27  27 100 NW7       29.80F FOG     WCI  19
$$

...ELSEWHERE IN IOWA...


CITY           SKY/WX    TMP DP  RH WIND       PRES   REMARKS
DES MOINES     PTCLDY    31  28  89 NW10      29.88F WCI  22
IOWA CITY      CLEAR     26  25  96 W3        29.84F
FORT DODGE     CLEAR     30  27  86 W6        29.87F WCI  24
$$

...NORTHERN ILLINOIS...


CITY           SKY/WX    TMP DP  RH WIND       PRES   REMARKS
CHICAGO-OHARE  CLOUDY    30  25  81 SW6       29.76F WCI  24
CHICAGO-MIDWAY MOCLDY    32  25  75 SW7       29.77F WCI  26
MOLINE         CLEAR     28  23  81 W7        29.81S WCI  21
ROCKFORD       MOCLDY    27  23  85 CALM      29.78F
PEORIA         CLEAR     31  24  75 SW7       29.82F WCI  24
$$

NOTE: "FAIR" INDICATES FEW OR NO CLOUDS BELOW 12,000 FEET WITH NO
SIGNIFICANT WEATHER AND/OR OBSTRUCTIONS TO VISIBILITY. WIND
SPEEDS ARE IN MILES-PER-HOUR.



USA.gov is the U.S. government's official web portal to all federal, state and local government web resources and services.